Location: Krasnoyarskiy Pitomnik
(51.1333°N, 71.6167°E)
Time: 08:10:06
(UTC+00:00)

H-2A R/B - Pass Details

Date: 22 October 2021
Orbit: 577 x 653 km, 98.5° (Epoch: 06 December)

Event Time Altitude Azimuth Distance (km) Brightness Sun altitude
Rises 13:21:12 0° 26° (NNE) 2,811 5.2 -12.4°
Reaches altitude 10° 13:23:45 10° 42° (NE) 1,911 4.2 -12.8°
Maximum altitude 13:27:01 22° 94° (E) 1,293 3.1 -13.3°
Drops below altitude 10° 13:30:17 10° 146° (SE) 1,920 4.3 -13.8°
Sets 13:32:51 0° 162° (SSE) 2,828 5.3 -14.2°
